Tracking 28514 objects as of 23-Feb-2024
HD Live streaming from Space Station
objects crossing your sky now

STARLINK-2236

Track STARLINK-2236 now!
10-day predictions
STARLINK-2236 is classified as:


NORAD ID: 48582
Int'l Code: 2021-041AF
Perigee: 553.4 km
Apogee: 555.2 km
Inclination: 53.1 °
Period: 95.6 minutes
Semi major axis: 6925 km
RCS: Unknown
Launch date: May 15, 2021
Source: United States (US)
Launch site: AIR FORCE EASTERN TEST RANGE (AFETR)
Your satellite tracking list
Your tracking list is empty




NASA's NSSDC Master Catalog

Two Line Element Set (TLE):
1 48582U 21041AF  24053.68652523  .00004216  00000-0  30167-3 0  9999
2 48582  53.0531 205.7211 0001337  81.0379 279.0761 15.06410321153695
Source of the keplerian elements: AFSPC